Location: Berg
(47.2344°N, 9.5296°E)
Time: 02:51:29
(UTC+00:00)

BEESAT 2 - Pass Details

Date: 06 December 2021
Orbit: 498 x 513 km, 64.9° (Epoch: 24 January)

Event Time Altitude Azimuth Distance (km) Brightness Sun altitude
Exits shadow 03:42:57 17° 56° (NE) 1,371 ? -31.4°
Drops below altitude 10° 03:44:43 10° 81° (E) 1,744 ? -31.1°
Sets 03:47:25 0° 100° (E) 2,626 ? -30.6°
